Flag for Norway Weather past 2 weeks in Molde, Norway

Now
43 °F

Scattered showers. Passing clouds.


Feels Like: 37 °F
Forecast: 36 / 42 °F
Wind: 9 mph from West

Location: Molde / Aro

Current Time: Feb 27, 2015 at 12:08:09 AM

Latest Report: Feb 26, 2015 at 11:20 PM


Visibility: N/A

Pressure: 29.45 "Hg

Humidity: 71%

Dew point: 34 °F

Location of MoldeLocation

Historic Weather in Molde — Graph

°F

Molde temperature yesterday

Maximum temperature yesterday: 48 °F (at 11:20 AM)
Minimum temperature yesterday: 32 °F (at 12:50 AM)
Average temperature yesterday: 43 °F

Past Weeks' High & Low Weather Summary

 TemperatureHumidityPressure
High50 °F (Feb 18, 5:50 PM)100% (Feb 12, 5:20 PM)30.18 "Hg (Feb 12, 5:20 PM)
Low27 °F (Feb 22, 10:20 PM)34% (Feb 16, 12:50 PM)28.62 "Hg (Feb 23, 9:50 AM)
Average39 °F74%29.55 "Hg
* Reported Feb 11 10:20 PM — Feb 26 10:50 PM, Molde, Weather by CustomWeather, © 2015

Note: Actual official high and low records may vary slightly from our data, if they occured in-between our weather recording intervals... More about our weather records

Advertising

Molde weather history for previous 24 hours

 ConditionsComfort  
Time TempWeatherWind HumidityBarometerVisibility
10:50 PM
Thu, Feb 26
43 °FPassing clouds.10 mph71%29.42 "HgN/A
9:50 PM43 °FLight rain. Passing clouds.13 mph76%29.42 "HgN/A
9:20 PM45 °FPartly cloudy.12 mph66%29.39 "HgN/A
8:50 PM45 °FPassing clouds.17 mph66%29.39 "HgN/A
8:20 PM45 °FPassing clouds.20 mph66%29.39 "HgN/A
7:50 PM45 °FPassing clouds.17 mph61%29.36 "HgN/A
7:20 PM45 °FPassing clouds.15 mph66%29.36 "HgN/A
6:50 PM45 °FPassing clouds.14 mph66%29.36 "HgN/A
6:20 PM45 °FPassing clouds.15 mph66%29.36 "HgN/A
5:50 PM45 °FPartly cloudy.13 mph71%29.36 "HgN/A
5:20 PM45 °FBroken clouds.12 mph71%29.36 "HgN/A
4:50 PM48 °FBroken clouds.9 mph54%29.36 "HgN/A
4:20 PM48 °FBroken clouds.9 mph54%29.36 "HgN/A
3:50 PM46 °FBroken clouds.10 mph62%29.36 "HgN/A
3:20 PM46 °FBroken clouds.16 mph66%29.36 "HgN/A
2:50 PM46 °FBroken clouds.14 mph66%29.36 "HgN/A
2:20 PM46 °FBroken clouds.13 mph62%29.36 "HgN/A
1:20 PM46 °FBroken clouds.7 mph62%29.36 "HgN/A
12:50 PM48 °FBroken clouds.6 mph54%29.36 "HgN/A
12:20 PM48 °FBroken clouds.3 mph50%29.36 "HgN/A
11:50 AM48 °FBroken clouds.8 mph50%29.36 "HgN/A
11:20 AM48 °FPartly sunny.13 mph54%29.36 "HgN/A
10:50 AM46 °FScattered showers. Partly sunny.7 mph57%29.36 "HgN/A
10:20 AM45 °FPartly sunny.6 mph57%29.36 "HgN/A
9:50 AM43 °FScattered showers. Partly sunny.8 mph61%29.36 "HgN/A
9:20 AM41 °FScattered showers. Partly sunny.10 mph76%29.39 "HgN/A
8:50 AM41 °FScattered showers. Partly sunny.10 mph76%29.39 "HgN/A
8:20 AM41 °FScattered showers. Partly sunny.14 mph70%29.39 "HgN/A
7:50 AM43 °FScattered showers. Partly sunny.9 mph61%29.42 "HgN/A
6:50 AM43 °FScattered showers. Passing clouds.10 mph61%29.45 "HgN/A
6:20 AM45 °FScattered showers. Passing clouds.10 mph49%29.47 "HgN/A
5:50 AM45 °FSprinkles. Mostly cloudy.15 mph49%29.50 "HgN/A
4:50 AM41 °FPassing clouds.8 mph57%29.53 "HgN/A
4:20 AM37 °FClear.8 mph75%29.56 "HgN/A
3:50 AM37 °FClear.10 mph81%29.56 "HgN/A
3:20 AM36 °FClear.10 mph87%29.59 "HgN/A
2:50 AM36 °FClear.13 mph87%29.62 "HgN/A
2:20 AM34 °FChilly.7 mph81%29.65 "HgN/A
1:50 AM34 °FClear.8 mph87%29.68 "HgN/A
1:20 AM32 °FChilly.8 mph87%29.68 "HgN/A
12:50 AM32 °FChilly.8 mph93%29.71 "HgN/A
12:20 AM34 °FClear.8 mph87%29.71 "Hg10 mi
Weather by CustomWeather, © 2015

See weather overviewHow to use our weather pages